Regional Weather Roundup
Issued by NWS San Diego, CA

Home | Current Version | Previous Version | Text Only | Print | Product List | Glossary On
Versions: 1 2 3 4 5 6 7 8 9 10 11 12 13 14 15 16 17 18 19 20 21 22 23 24 25 26 27
000
ASUS46 KSGX 230311
RWRSGX

SAN DIEGO HOURLY WEATHER ROUNDUP
NATIONAL WEATHER SERVICE SAN DIEGO CA
800 PM PDT WED MAR 22 2017

NOTE: "FAIR" INDICATES FEW OR NO CLOUDS BELOW 12,000 FEET WITH NO
SIGNIFICANT WEATHER AND/OR OBSTRUCTIONS TO VISIBILITY.

CAZ042-043-060-061-PZZ750-775-230400-

GREATER SAN DIEGO AREA

CITY           SKY/WX    TMP DP  RH WIND       PRES   REMARKS
SAN DIEGO AP   MOCLDY    61  53  75 W12       30.04R
NATIONAL CITY    N/A     60  55  82 W6        30.03R
CHULA VISTA      N/A     60  55  84 W7        29.95R
IMPERIAL BEACH MOCLDY    60  53  77 W13       30.04R
BROWN FIELD    MOCLDY    57  53  86 W8        30.02S
MIRAMAR MCAS   MOCLDY    61  52  72 W8        30.02R
MONTGOMERY FLD MOCLDY    59  50  72 W12       30.02R

$$

NORTH SAN DIEGO COUNTY

CITY           SKY/WX    TMP DP  RH WIND       PRES   REMARKS
CAMP PENDLETON MOCLDY    58  57  97 VRB3      30.00R
OCEANSIDE AP   PTCLDY    60  55  83 W14       30.00R
OCEANSIDE HBR    N/A     59  55  85 N14       30.03S
VISTA            N/A     58  53  84 W3        29.99R
CARLSBAD       CLOUDY    59  53  80 W10       30.01R
DEL MAR          N/A     59  54  84 NW3       30.04R
LA JOLLA SCRIP   N/A     59  54  82 W1        30.02R
FALLBROOK        N/A     57  56  97 SW2       29.97S
ESCONDIDO        N/A     58  52  80 SW6       30.03R
SAN MARCOS       N/A     57  51  82 W8        30.02R
POWAY            N/A     57  51  80 CALM      30.03R

$$

EAST SAN DIEGO COUNTY

CITY           SKY/WX    TMP DP  RH WIND       PRES   REMARKS
RAMONA         PTCLDY   N/A N/A N/A W10       30.01R
SANTEE LAKES     N/A     58  52  82 CALM      30.01R
LA MESA          N/A     57  51  80 W3        29.95S
JAMUL            N/A     55  50  85 CALM      30.02R
DESCANSO N       N/A     44  42  93 W8        29.94R
CAMPO            N/A     48  45  89 W14       29.96S

$$

ORANGE COUNTY AND THE LOS ANGELES BASIN

CITY           SKY/WX    TMP DP  RH WIND       PRES   REMARKS
JOHN WAYNE AP  MOCLDY    60  54  80 SW6       29.99R
LAGUNA BEACH     N/A    N/A N/A N/A W2        29.95R
LAKE FOREST FR   N/A     56  49  78 W2        29.90R
HUNTINGTON BCH   N/A     59  54  83 W12       30.00R
LOS ALAMITOS   PTCLDY    58  53  83 SW13      29.98R
FULLERTON      CLEAR     60  51  72 SW7       29.96S
LONG BEACH     CLEAR     61  49  64 W7        29.98R
L.A. AP        PTCLDY    59  52  77 W22       29.96S
L.A. DOWNTOWN  CLEAR     60  52  74 MISG      29.96R

$$

THE INLAND EMPIRE

CITY           SKY/WX    TMP DP  RH WIND       PRES   REMARKS
CORONA         CLEAR     58  48  69 SW12      29.96
CHINO          PTCLDY    58  49  72 SW10      29.97R
ONTARIO        MOCLDY    57  49  74 SW9G18    29.96R
SAN BERNARDINO PTCLDY    57  46  67 SW15      29.96S
RIVERSIDE AP   CLEAR     56  48  74 W9G17     29.96R
MORENO VALLEY    N/A     54  50  87 W9        28.07R
MARCH ARB      PTCLDY    53  46  77 W7        29.96R
HORSETHIEF CYN   N/A     55  39  55 NE10      29.97R
PERRIS           N/A     55  48  76 CALM      29.96R
HEMET EAST       N/A     52  43  72 SE5       30.02R
FRENCH VALLEY  CLOUDY    55  46  71 S9        29.98S
TEMECULA         N/A     56  52  86 SW5       30.04R

$$

SAN BERNARDINO AND RIVERSIDE COUNTY MOUNTAINS

CITY           SKY/WX    TMP DP  RH WIND       PRES   REMARKS
BIG BEAR AP    FLURRIES  34  28  80 SW3       29.94S
PINE COVE        N/A     35  35  99 W3        29.91R

$$

SOUTHERN DESERT INCLUDING THE COACHELLA VALLEY

CITY           SKY/WX    TMP DP  RH WIND       PRES   REMARKS
PALM SPRINGS   PTCLDY    65  40  39 MISG      29.87R
PALM DESERT      N/A     67  41  38 W13       30.85R
THERMAL        MOCLDY    69  41  36 NW16G25   29.83R
BLYTHE         MOCLDY    69  39  33 SW15      29.82R
IMPERIAL AP    CLEAR     65  37  35 SW25G38   29.84S
EL CENTRO NAS  PTCLDY    64  36  35 W29       29.90R
YUMA AZ        CLOUDY    65  53  65 S5        29.86
MEXICALI       MOCLDY    66  36  32 W20       29.86S

$$

UPPER DESERT

CITY           SKY/WX    TMP DP  RH WIND       PRES   REMARKS
VICTORVILLE AP MOCLDY    46  37  71 W12       29.94R
HESPERIA         N/A     50  38  63 W2        30.05R
PALMDALE       LGT RAIN  50  40  68 W23G33    29.97R
LANCASTER      MOCLDY    48  40  73 W22       29.96S
EDWARDS AFB    MOCLDY    49  42  77 W6        29.92S
DAGGETT        PTCLDY    56  32  40 W16G23    29.89F
29 PALMS N     CLOUDY    57  34  41 NW17G30   29.95R
NEEDLES        CLOUDY    69  45  41 S8        29.79F

$$

REGIONAL REPORTS

CITY           SKY/WX    TMP DP  RH WIND       PRES   REMARKS
SANTA BARBARA  PTCLDY    57  44  62 W8        29.99R
SANDBERG       LGT RAIN  40  36  86 NW18      29.99S WCI  31
LAS VEGAS NV   CLOUDY    64  22  20 S13       29.74F
PHOENIX AZ     MOCLDY    77  47  34 W10       29.79R
TIJUANA        PTCLDY    57  50  77 W7        30.05R
ENSENADA NW      N/A     58  32  37 N3        30.02R

$$

OFFSHORE ISLANDS

CITY           SKY/WX    TMP DP  RH WIND       PRES   REMARKS
CATALINA ARPT  CLOUDY    52  51  97 W22G29    30.00R
SAN NICOLAS IS PTCLDY   N/A N/A N/A W24G31    30.03R

$$

MARINE AND OFFSHORE BUOY REPORTS

STATION/POSITION SKY/WX   TEMP    WIND        PRES    VSBY  SWELL
                          AIR SEA DIR/SP/G                  HT/PER/DIR
                          (F)     (DEG/KT/KT) (MB)    (MI)  (FT/S/D)
TANNER BANKS               59 60  310/ 19/ 23 1017.3R         5/310/11
S CLEMENTE BASIN           59 61  280/ 16/ 17 1016.6R         3/280/15
SAN NICOLAS IS.               58                N/A           5/280/13
SO. S. ROSA ISLA           56 57  310/ 23/ 27 1017.1R         7/290/11
W. S. BARBARA CH           57 58  330/ 21/ 27 1017.3R         7/280/11
M. S. BARBARA CH                                N/A           7/270/11
S. MONICA BASIN            58 60  270/ 23/ 29 1014.9
S PEDRO CHANNEL               61                N/A           2/250/14
CMP PENDLETON NS              62                N/A           2/210/15
OCEANSIDE OFFSHR              62                N/A           3/200/14
TORREY PINES OTR              62                N/A           2/210/14
POINT LOMA SOUTH              62                N/A           3/190/17

$$





USA.gov is the U.S. government's official web portal to all federal, state and local government web resources and services.